Location: Beddau
(51.5575°N, 3.3561°W)
Time: 02:10:14
(UTC+00:00)

NOSS 3-3 (A) - Pass Details

Date: 03 March 2021
Orbit: 815 x 1397 km, 63.4° (Epoch: 13 April)

Event Time Altitude Azimuth Distance (km) Brightness Sun altitude
Rises 20:05:36 0° 313° (NW) 3,862 8.2 -20.5°
Reaches altitude 10° 20:08:08 10° 316° (NW) 2,984 7.4 -20.9°
Maximum altitude 20:15:21 69° 40° (NE) 1,306 4.5 -22.0°
Enters shadow 20:18:42 38° 112° (ESE) 1,854 4.9 -22.5°
